Погода в Лебяжьем

Россия / Астраханская область     45°54′16″N   48°07′23″E
темп.,
°C
ветер,
м/с
пор.,
м/с
влажн.,
%
обл.,
%
осадки,
мм/ч
давл.,
гПа
погр.,
м
24 сентября, пт
пт2401:00+14ссз5779100 0.6 1010323
04:00+14с61084100 0.6 1009394
07:00+15с61180100 0.0 1007441
10:00+18ссз7666100 0.0 1007727
13:00+20сз8850100 0.0 10061043
16:00+18сз911615 0.0 1008794
19:00+14зсз8117687 0.0 1010600
22:00+13зсз71072100 0.0 1012638
25 сентября, сб
сб2501:00+12зсз61073100 0.0 1012429
04:00+11зсз37810 0.0 1013151
07:00+10зсз35840 0.0 101392
10:00+16зсз235888 0.0 1013695
13:00+19з2241100 0.0 10121273
16:00+20зсз4338100 0.0 10121207
19:00+17сз2348100 0.0 101446
22:00+16зюз2251100 0.0 101419
26 сентября, вс
вс2601:00+14з4883100 0.3 1015410
04:00+14зюз5976100 0.5 1015543
07:00+13з510821 0.1 1015379
10:00+16з79575 0.1 1016871
13:00+19з88448 0.0 10151902
16:00+18з7943100 0.1 10151846
19:00+15з5105347 0.0 1014430
22:00+14зюз71370100 0.4 10131065
27 сентября, пн
пн2701:00+15зюз101579100 1.3 10111009
04:00+15зюз9147697 1.5 1010932
07:00+14з814752 0.4 1010630
10:00+15зсз912590 0.4 10111268
13:00+18зсз911415 0.0 10121930
16:00+18зсз912365 0.0 10122305
19:00+15ссз7114453 0.0 1014729
22:00+12зсз37556 0.0 1015147
28 сентября, вт
вт2801:00+11зсз37644 0.0 1016127
04:00+10зсз36715 0.0 1017110
07:00+10зсз36767 0.0 101898
10:00+15сз455485 0.0 1019597
13:00+17сз445059 0.0 1020930
16:00+19сз444399 0.0 10202093
19:00+16ссв2254100 0.1 102287
22:00+13ссв5753100 0.1 1024554